Content
SEND FEEDBACK

Daily
Averages
Monthly
Summary
United States of America

RAPID CITY, SOUTH DAKOTA


Home > North America > United States > South Dakota
Elevation: 963 meters     Latitude: 44 03N     Longitude: 103 04W

WEATHER
 
SELECT A DAY
Number of Records: 205,017;   Date Range: 1/1/95 - 12/19/14
 
SHARE

PRINT THIS DATA

[ ← Previous Day ]
WEATHER ALMANAC - 17 MAY, 2013
[ Next Day → ]
[ °F ]   °C
Weather ElementAverageHighLow
Temperature18.1 °C25 °C (2:52 pm)8.9 °C (4:52 am)
Dewpoint11 °C13.9 °C (11:52 am)7.2 °C (4:52 am)
Humidity65.6 %90 % (3:52 am)43 % (5:52 pm)
Barometer1007.5 hPa1009.8 hPa (7:52 am)1004.4 hPa (7:52 pm)
Wind Speed13.7 km/h38.9 km/h (11:52 pm)
Wind Gust57.5 km/h (11:52 pm)
Weather ElementAverage
Visibility16.1 km
Wind DirectionSE (133 °)

Weather ElementTotal
Precipitation---
Heating Degree Days1.4 (Base 18.3)
Growing Degree Days6.9 (Base 10)
Averaged from 23 records on 17 May, 2013
WEATHER CONDITIONS BREAKOUT
WIND DIRECTION BREAKOUT
WEATHER BY HOUR - 17 MAY, 2013
[ °F ]   °C
Local TimeTemperatureDewpointHumidityBarometerVisibilityWind DirectionWind SpeedGust SpeedPrecipitationEventsConditions
1:52 AM10 °C8.3 °C89 %1008.5 hPa16.1 kmCalmClear
2:52 AM11.1 °C8.9 °C86 %1009.5 hPa16.1 kmSW (220°)5.6 km/hClear
3:52 AM9.4 °C7.8 °C90 %1008.8 hPa16.1 kmWNW (300°)11.1 km/hClear
4:52 AM8.9 °C7.2 °C89 %1009.1 hPa16.1 kmNW (320°)5.6 km/hClear
5:52 AM11.7 °C9.4 °C86 %1008.8 hPa14.5 kmNW (310°)9.3 km/hPartly Cloudy
6:52 AM15.6 °C11.7 °C78 %1008.5 hPa16.1 kmNE (40°)11.1 km/h0 mmRainLight Rain
7:52 AM15 °C10.6 °C75 %1009.8 hPa16.1 kmNNW (330°)11.1 km/h0 mmClear
8:52 AM17.8 °C10.6 °C63 %1009.5 hPa16.1 kmNorth (10°)14.8 km/hClear
9:52 AM18.9 °C12.2 °C65 %1009.5 hPa16.1 kmNE (40°)7.4 km/hClear
10:52 AM20.6 °C13.3 °C63 %1009.1 hPa16.1 kmNE (50°)9.3 km/hPartly Cloudy
11:52 AM22.2 °C13.9 °C59 %1008.5 hPa16.1 kmESE (110°)13 km/hClear
12:52 PM23.3 °C13.9 °C55 %1008.1 hPa16.1 kmEast (80°)14.8 km/hMostly Cloudy
1:52 PM24.4 °C12.2 °C46 %1007.8 hPa16.1 kmEast (80°)16.7 km/h31.5 km/hPartly Cloudy
2:52 PM25 °C12.8 °C47 %1007.1 hPa16.1 kmSE (130°)24.1 km/h35.2 km/hPartly Cloudy
3:52 PM24.4 °C12.2 °C46 %1006.4 hPa16.1 kmSE (130°)18.5 km/hClear
4:52 PM25 °C12.2 °C45 %1005.4 hPa16.1 kmESE (110°)22.2 km/hScattered Clouds
5:52 PM24.4 °C11.1 °C43 %1004.7 hPa16.1 kmEast (100°)14.8 km/hClear
6:52 PM23.3 °C11.7 °C48 %1004.7 hPa16.1 kmEast (80°)13 km/hMostly Cloudy
7:52 PM20.6 °C11.1 °C54 %1004.4 hPa16.1 kmENE (70°)11.1 km/hClear
8:52 PM17.2 °C10.6 °C65 %1005.4 hPa16.1 kmENE (70°)11.1 km/hClear
9:52 PM16.1 °C10.6 °C70 %1005.8 hPa16.1 kmESE (120°)7.4 km/hClear
10:52 PM16.1 °C11.1 °C72 %1007.1 hPa16.1 kmNNW (330°)24.1 km/hClear
11:52 PM14.4 °C10 °C75 %1007.5 hPa16.1 kmNNE (30°)38.9 km/h57.5 km/hPartly Cloudy
Hourly data recorded from KRAP, located 0 kilometers away from Rapid City, South Dakota







STORIES FROM OUR PARTNERS